Year,Month,Day,Hour,Minute,Value (Times are PST for temperature in C)
2016,11,25,00,00,3.80
2016,11,25,00,01,3.80
2016,11,25,00,02,3.80
2016,11,25,00,03,3.80
2016,11,25,00,04,3.80
2016,11,25,00,05,3.80
2016,11,25,00,06,3.80
2016,11,25,00,07,3.90
2016,11,25,00,08,3.90
2016,11,25,00,09,3.80
2016,11,25,00,10,3.90
2016,11,25,00,11,3.90
2016,11,25,00,12,3.90
2016,11,25,00,13,3.90
2016,11,25,00,14,3.90
2016,11,25,00,15,3.90
2016,11,25,00,16,3.90
2016,11,25,00,17,3.90
2016,11,25,00,18,3.90
2016,11,25,00,19,3.90
2016,11,25,00,20,3.90
2016,11,25,00,21,3.90
2016,11,25,00,22,3.90
2016,11,25,00,23,3.90
2016,11,25,00,24,3.90
2016,11,25,00,25,4.00
2016,11,25,00,26,4.00
2016,11,25,00,27,4.10
2016,11,25,00,28,4.10
2016,11,25,00,29,4.10
2016,11,25,00,30,4.10
2016,11,25,00,31,4.10
2016,11,25,00,32,4.10
2016,11,25,00,33,4.10
2016,11,25,00,34,4.10
2016,11,25,00,35,4.10
2016,11,25,00,36,4.00
2016,11,25,00,37,4.00
2016,11,25,00,38,4.00
2016,11,25,00,39,4.10
2016,11,25,00,40,4.10
2016,11,25,00,41,4.00
2016,11,25,00,42,4.00
2016,11,25,00,43,4.00
2016,11,25,00,44,4.00
2016,11,25,00,45,4.10
2016,11,25,00,46,4.10
2016,11,25,00,47,4.10
2016,11,25,00,48,4.10
2016,11,25,00,49,4.10
2016,11,25,00,50,4.10
2016,11,25,00,51,4.10
2016,11,25,00,52,4.10
2016,11,25,00,53,4.10
2016,11,25,00,54,4.10
2016,11,25,00,55,4.10
2016,11,25,00,56,4.10
2016,11,25,00,57,4.10
2016,11,25,00,58,4.10
2016,11,25,00,59,4.10
2016,11,25,01,00,4.10
2016,11,25,01,01,4.10
2016,11,25,01,02,4.10
2016,11,25,01,03,4.10
2016,11,25,01,04,4.10
2016,11,25,01,05,4.10
2016,11,25,01,06,4.10
2016,11,25,01,07,4.10
2016,11,25,01,08,4.10
2016,11,25,01,09,4.10
2016,11,25,01,10,4.10
2016,11,25,01,11,4.10
2016,11,25,01,12,4.10
2016,11,25,01,13,4.10
2016,11,25,01,14,4.10
2016,11,25,01,15,4.10
2016,11,25,01,16,4.10
2016,11,25,01,17,4.10
2016,11,25,01,18,4.10
2016,11,25,01,19,4.10
2016,11,25,01,20,4.10
2016,11,25,01,21,4.10
2016,11,25,01,22,4.10
2016,11,25,01,23,4.10
2016,11,25,01,24,4.10
2016,11,25,01,25,4.10
2016,11,25,01,26,4.10
2016,11,25,01,27,4.10
2016,11,25,01,28,4.10
2016,11,25,01,29,4.10
2016,11,25,01,30,4.10
2016,11,25,01,31,4.10
2016,11,25,01,32,4.00
2016,11,25,01,33,4.00
2016,11,25,01,34,4.00
2016,11,25,01,35,4.00
2016,11,25,01,36,4.00
2016,11,25,01,37,4.00
2016,11,25,01,38,4.00
2016,11,25,01,39,3.90
2016,11,25,01,40,3.90
2016,11,25,01,41,3.90
2016,11,25,01,42,3.90
2016,11,25,01,43,3.90
2016,11,25,01,44,3.90
2016,11,25,01,45,3.90
2016,11,25,01,46,3.90
2016,11,25,01,47,3.90
2016,11,25,01,48,3.90
2016,11,25,01,49,4.00
2016,11,25,01,50,4.00
2016,11,25,01,51,4.00
2016,11,25,01,52,4.00
2016,11,25,01,53,4.00
2016,11,25,01,54,4.00
2016,11,25,01,55,4.00
2016,11,25,01,56,4.00
2016,11,25,01,57,4.00
2016,11,25,01,58,4.10
2016,11,25,01,59,4.10
2016,11,25,02,00,4.10
2016,11,25,02,01,4.10
2016,11,25,02,02,4.20
2016,11,25,02,03,4.20
2016,11,25,02,04,4.20
2016,11,25,02,05,4.20
2016,11,25,02,06,4.20
2016,11,25,02,07,4.30
2016,11,25,02,08,4.30
2016,11,25,02,09,4.30
2016,11,25,02,10,4.20
2016,11,25,02,11,4.20
2016,11,25,02,12,4.20
2016,11,25,02,13,4.20
2016,11,25,02,14,4.20
2016,11,25,02,15,4.20
2016,11,25,02,16,4.20
2016,11,25,02,17,4.20
2016,11,25,02,18,4.20
2016,11,25,02,19,4.20
2016,11,25,02,20,4.30
2016,11,25,02,21,4.30
2016,11,25,02,22,4.30
2016,11,25,02,23,4.20
2016,11,25,02,24,4.20
2016,11,25,02,25,4.20
2016,11,25,02,26,4.20
2016,11,25,02,27,4.10
2016,11,25,02,28,4.00
2016,11,25,02,29,4.00
2016,11,25,02,30,3.90
2016,11,25,02,31,3.90
2016,11,25,02,32,3.80
2016,11,25,02,33,3.80
2016,11,25,02,34,3.70
2016,11,25,02,35,3.70
2016,11,25,02,36,3.60
2016,11,25,02,37,3.60
2016,11,25,02,38,3.60
2016,11,25,02,39,3.60
2016,11,25,02,40,3.60
2016,11,25,02,41,3.60
2016,11,25,02,42,3.60
2016,11,25,02,43,3.50
2016,11,25,02,44,3.50
2016,11,25,02,45,3.50
2016,11,25,02,46,3.50
2016,11,25,02,47,3.40
2016,11,25,02,48,3.40
2016,11,25,02,49,3.30
2016,11,25,02,50,3.30
2016,11,25,02,51,3.30
2016,11,25,02,52,3.30
2016,11,25,02,53,3.30
2016,11,25,02,54,3.30
2016,11,25,02,55,3.20
2016,11,25,02,56,3.20
2016,11,25,02,57,3.20
2016,11,25,02,58,3.20
2016,11,25,02,59,3.20
2016,11,25,03,00,3.20
2016,11,25,03,01,3.10
2016,11,25,03,02,3.10
2016,11,25,03,03,3.10
2016,11,25,03,04,3.10
2016,11,25,03,05,3.10
2016,11,25,03,06,3.10
2016,11,25,03,07,3.20
2016,11,25,03,08,3.20
2016,11,25,03,09,3.20
2016,11,25,03,10,3.20
2016,11,25,03,11,3.20
2016,11,25,03,12,3.20
2016,11,25,03,13,3.20
2016,11,25,03,14,3.20
2016,11,25,03,15,3.20
2016,11,25,03,16,3.20
2016,11,25,03,17,3.20
2016,11,25,03,18,3.10
2016,11,25,03,19,3.10
2016,11,25,03,20,3.10
2016,11,25,03,21,3.00
2016,11,25,03,22,3.00
2016,11,25,03,23,2.90
2016,11,25,03,24,2.90
2016,11,25,03,25,2.90
2016,11,25,03,26,2.90
2016,11,25,03,27,2.90
2016,11,25,03,28,2.90
2016,11,25,03,29,3.00
2016,11,25,03,30,3.00
2016,11,25,03,31,3.10
2016,11,25,03,32,3.10
2016,11,25,03,33,3.10
2016,11,25,03,34,3.10
2016,11,25,03,35,3.10
2016,11,25,03,36,3.10
2016,11,25,03,37,3.10
2016,11,25,03,38,3.10
2016,11,25,03,39,3.20
2016,11,25,03,40,3.20
2016,11,25,03,41,3.30
2016,11,25,03,42,3.30
2016,11,25,03,43,3.30
2016,11,25,03,44,3.30
2016,11,25,03,45,3.30
2016,11,25,03,46,3.30
2016,11,25,03,47,3.30
2016,11,25,03,48,3.30
2016,11,25,03,49,3.30
2016,11,25,03,50,3.30
2016,11,25,03,51,3.30
2016,11,25,03,52,3.30
2016,11,25,03,53,3.30
2016,11,25,03,54,3.40
2016,11,25,03,55,3.40
2016,11,25,03,56,3.40
2016,11,25,03,57,3.50
2016,11,25,03,58,3.50
2016,11,25,03,59,3.50
2016,11,25,04,00,3.50
2016,11,25,04,01,3.50
2016,11,25,04,02,3.50
2016,11,25,04,03,3.50
2016,11,25,04,04,3.50
2016,11,25,04,05,3.50
2016,11,25,04,06,3.40
2016,11,25,04,07,3.40
2016,11,25,04,08,3.30
2016,11,25,04,09,3.20
2016,11,25,04,10,3.20
2016,11,25,04,11,3.10
2016,11,25,04,12,3.10
2016,11,25,04,13,3.10
2016,11,25,04,14,3.10
2016,11,25,04,15,3.10
2016,11,25,04,16,3.00
2016,11,25,04,17,3.00
2016,11,25,04,18,3.00
2016,11,25,04,19,3.00
2016,11,25,04,20,3.00
2016,11,25,04,21,3.00
2016,11,25,04,22,3.00
2016,11,25,04,23,3.10
2016,11,25,04,24,3.10
2016,11,25,04,25,3.10
2016,11,25,04,26,3.10
2016,11,25,04,27,3.10
2016,11,25,04,28,3.10
2016,11,25,04,29,3.10
2016,11,25,04,30,3.10
2016,11,25,04,31,3.10
2016,11,25,04,32,3.10
2016,11,25,04,33,3.10
2016,11,25,04,34,3.10
2016,11,25,04,35,3.10
2016,11,25,04,36,3.10
2016,11,25,04,37,3.10
2016,11,25,04,38,3.10
2016,11,25,04,39,3.10
2016,11,25,04,40,3.10
2016,11,25,04,41,3.10
2016,11,25,04,42,3.10
2016,11,25,04,43,3.10
2016,11,25,04,44,3.10
2016,11,25,04,45,3.10
2016,11,25,04,46,3.10
2016,11,25,04,47,3.10
2016,11,25,04,48,3.00
2016,11,25,04,49,3.00
2016,11,25,04,50,3.10
2016,11,25,04,51,3.00
2016,11,25,04,52,3.00
2016,11,25,04,53,3.00
2016,11,25,04,54,3.00
2016,11,25,04,55,3.00
2016,11,25,04,56,3.00
2016,11,25,04,57,3.00
2016,11,25,04,58,3.00
2016,11,25,04,59,3.10
2016,11,25,05,00,3.10
2016,11,25,05,01,3.20
2016,11,25,05,02,3.20
2016,11,25,05,03,3.30
2016,11,25,05,04,3.30
2016,11,25,05,05,3.40
2016,11,25,05,06,3.40
2016,11,25,05,07,3.50
2016,11,25,05,08,3.50
2016,11,25,05,09,3.60
2016,11,25,05,10,3.60
2016,11,25,05,11,3.60
2016,11,25,05,12,3.60
2016,11,25,05,13,3.70
2016,11,25,05,14,3.70
2016,11,25,05,15,3.70
2016,11,25,05,16,3.60
2016,11,25,05,17,3.60
2016,11,25,05,18,3.60
2016,11,25,05,19,3.60
2016,11,25,05,20,3.60
2016,11,25,05,21,3.60
2016,11,25,05,22,3.60
2016,11,25,05,23,3.60
2016,11,25,05,24,3.60
2016,11,25,05,25,3.60
2016,11,25,05,26,3.60
2016,11,25,05,27,3.60
2016,11,25,05,28,3.50
2016,11,25,05,29,3.50
2016,11,25,05,30,3.50
2016,11,25,05,31,3.50
2016,11,25,05,32,3.50
2016,11,25,05,33,3.50
2016,11,25,05,34,3.40
2016,11,25,05,35,3.40
2016,11,25,05,36,3.40
2016,11,25,05,37,3.40
2016,11,25,05,38,3.40
2016,11,25,05,39,3.40
2016,11,25,05,40,3.40
2016,11,25,05,41,3.40
2016,11,25,05,42,3.40
2016,11,25,05,43,3.40
2016,11,25,05,44,3.40
2016,11,25,05,45,3.50
2016,11,25,05,46,3.50
2016,11,25,05,47,3.50
2016,11,25,05,48,3.60
2016,11,25,05,49,3.60
2016,11,25,05,50,3.60
2016,11,25,05,51,3.60
2016,11,25,05,52,3.60
2016,11,25,05,53,3.60
2016,11,25,05,54,3.70
2016,11,25,05,55,3.70
2016,11,25,05,56,3.70
2016,11,25,05,57,3.70
2016,11,25,05,58,3.70
2016,11,25,05,59,3.70
2016,11,25,06,00,3.70
2016,11,25,06,01,3.80
2016,11,25,06,02,3.80
2016,11,25,06,03,3.80
2016,11,25,06,04,3.80
2016,11,25,06,05,3.80
2016,11,25,06,06,3.80
2016,11,25,06,07,3.80
2016,11,25,06,08,3.90
2016,11,25,06,09,3.90
2016,11,25,06,10,3.90
2016,11,25,06,11,3.90
2016,11,25,06,12,3.90
2016,11,25,06,13,3.90
2016,11,25,06,14,3.90
2016,11,25,06,15,3.90
2016,11,25,06,16,3.90
2016,11,25,06,17,3.90
2016,11,25,06,18,3.90
2016,11,25,06,19,4.00
2016,11,25,06,20,4.00
2016,11,25,06,21,4.00
2016,11,25,06,22,4.10
2016,11,25,06,23,4.10
2016,11,25,06,24,4.10
2016,11,25,06,25,4.10
2016,11,25,06,26,4.10
2016,11,25,06,27,4.10
2016,11,25,06,28,4.10
2016,11,25,06,29,4.10
2016,11,25,06,30,4.10
2016,11,25,06,31,4.10
2016,11,25,06,32,4.10
2016,11,25,06,33,4.10
2016,11,25,06,34,4.20
2016,11,25,06,35,4.20
2016,11,25,06,36,4.20
2016,11,25,06,37,4.20
2016,11,25,06,38,4.20
2016,11,25,06,39,4.20
2016,11,25,06,40,4.20
2016,11,25,06,41,4.20
2016,11,25,06,42,4.20
2016,11,25,06,43,4.20
2016,11,25,06,44,4.20
2016,11,25,06,45,4.30
2016,11,25,06,46,4.30
2016,11,25,06,47,4.30
2016,11,25,06,48,4.30
2016,11,25,06,49,4.30
2016,11,25,06,50,4.30
2016,11,25,06,51,4.30
2016,11,25,06,52,4.30
2016,11,25,06,53,4.30
2016,11,25,06,54,4.30
2016,11,25,06,55,4.30
2016,11,25,06,56,4.30
2016,11,25,06,57,4.40
2016,11,25,06,58,4.40
2016,11,25,06,59,4.40
2016,11,25,07,00,4.40
2016,11,25,07,01,4.40
2016,11,25,07,02,4.40
2016,11,25,07,03,4.50
2016,11,25,07,04,4.50
2016,11,25,07,05,4.60
2016,11,25,07,06,4.60
2016,11,25,07,07,4.60
2016,11,25,07,08,4.60
2016,11,25,07,09,4.60
2016,11,25,07,10,4.60
2016,11,25,07,11,4.60
2016,11,25,07,12,4.60
2016,11,25,07,13,4.70
2016,11,25,07,14,4.70
2016,11,25,07,15,4.70
2016,11,25,07,16,4.70
2016,11,25,07,17,4.70
2016,11,25,07,18,4.70
2016,11,25,07,19,4.70
2016,11,25,07,20,4.70
2016,11,25,07,21,4.70
2016,11,25,07,22,4.70
2016,11,25,07,23,4.70
2016,11,25,07,24,4.70
2016,11,25,07,25,4.70
2016,11,25,07,26,4.80
2016,11,25,07,27,4.80
2016,11,25,07,28,4.80
2016,11,25,07,29,4.80
2016,11,25,07,30,4.80
2016,11,25,07,31,4.80
2016,11,25,07,32,4.80
2016,11,25,07,33,4.80
2016,11,25,07,34,4.80
2016,11,25,07,35,4.80
2016,11,25,07,36,4.80
2016,11,25,07,37,4.80
2016,11,25,07,38,4.80
2016,11,25,07,39,4.90
2016,11,25,07,40,4.90
2016,11,25,07,41,4.90
2016,11,25,07,42,4.90
2016,11,25,07,43,4.90
2016,11,25,07,44,4.90
2016,11,25,07,45,4.90
2016,11,25,07,46,4.90
2016,11,25,07,47,4.90
2016,11,25,07,48,4.90
2016,11,25,07,49,4.90
2016,11,25,07,50,4.90
2016,11,25,07,51,4.90
2016,11,25,07,52,4.90
2016,11,25,07,53,5.00
2016,11,25,07,54,5.00
2016,11,25,07,55,5.00
2016,11,25,07,56,5.00
2016,11,25,07,57,5.00
2016,11,25,07,58,5.00
2016,11,25,07,59,5.00
2016,11,25,08,00,5.00
2016,11,25,08,01,5.00
2016,11,25,08,02,5.10
2016,11,25,08,03,5.10
2016,11,25,08,04,5.10
2016,11,25,08,05,5.10
2016,11,25,08,06,5.10
2016,11,25,08,07,5.10
2016,11,25,08,08,5.10
2016,11,25,08,09,5.10
2016,11,25,08,10,5.10
2016,11,25,08,11,5.20
2016,11,25,08,12,5.20
2016,11,25,08,13,5.20
2016,11,25,08,14,5.20
2016,11,25,08,15,5.20
2016,11,25,08,16,5.20
2016,11,25,08,17,5.20
2016,11,25,08,18,5.20
2016,11,25,08,19,5.20
2016,11,25,08,20,5.20
2016,11,25,08,21,5.20
2016,11,25,08,22,5.20
2016,11,25,08,23,5.20
2016,11,25,08,24,5.20
2016,11,25,08,25,5.20
2016,11,25,08,26,5.30
2016,11,25,08,27,5.30
2016,11,25,08,28,5.30
2016,11,25,08,29,5.30
2016,11,25,08,30,5.30
2016,11,25,08,31,5.30
2016,11,25,08,32,5.30
2016,11,25,08,33,5.30
2016,11,25,08,34,5.30
2016,11,25,08,35,5.30
2016,11,25,08,36,5.30
2016,11,25,08,37,5.30
2016,11,25,08,38,5.30
2016,11,25,08,39,5.30
2016,11,25,08,40,5.30
2016,11,25,08,41,5.30
2016,11,25,08,42,5.30
2016,11,25,08,43,5.30
2016,11,25,08,44,5.30
2016,11,25,08,45,5.30
2016,11,25,08,46,5.30
2016,11,25,08,47,5.30
2016,11,25,08,48,5.30
2016,11,25,08,49,5.30
2016,11,25,08,50,5.30
2016,11,25,08,51,5.30
2016,11,25,08,52,5.30
2016,11,25,08,53,5.30
2016,11,25,08,54,5.30
2016,11,25,08,55,5.40
2016,11,25,08,56,5.40
2016,11,25,08,57,5.40
2016,11,25,08,58,5.50
2016,11,25,08,59,5.50
2016,11,25,09,00,5.50
2016,11,25,09,01,5.50
2016,11,25,09,02,5.60
2016,11,25,09,03,5.60
2016,11,25,09,04,5.60
2016,11,25,09,05,5.60
2016,11,25,09,06,5.60
2016,11,25,09,07,5.70
2016,11,25,09,08,5.70
2016,11,25,09,09,5.70
2016,11,25,09,10,5.70
2016,11,25,09,11,5.70
2016,11,25,09,12,5.70
2016,11,25,09,13,5.70
2016,11,25,09,14,5.70
2016,11,25,09,15,5.70
2016,11,25,09,16,5.70
2016,11,25,09,17,5.80
2016,11,25,09,18,5.80
2016,11,25,09,19,5.70
2016,11,25,09,20,5.70
2016,11,25,09,21,5.70
2016,11,25,09,22,5.70
2016,11,25,09,23,5.70
2016,11,25,09,24,5.70
2016,11,25,09,25,5.70
2016,11,25,09,26,5.70
2016,11,25,09,27,5.70
2016,11,25,09,28,5.70
2016,11,25,09,29,5.70
2016,11,25,09,30,5.70
2016,11,25,09,31,5.70
2016,11,25,09,32,5.70
2016,11,25,09,33,5.70
2016,11,25,09,34,5.70
2016,11,25,09,35,5.70
2016,11,25,09,36,5.70
2016,11,25,09,37,5.70
2016,11,25,09,38,5.70
2016,11,25,09,39,5.70
2016,11,25,09,40,5.70
2016,11,25,09,41,5.70
2016,11,25,09,42,5.70
2016,11,25,09,43,5.70
2016,11,25,09,44,5.70
2016,11,25,09,45,5.70
2016,11,25,09,46,5.70
2016,11,25,09,47,5.70
2016,11,25,09,48,5.70
2016,11,25,09,49,5.70
2016,11,25,09,50,5.70
2016,11,25,09,51,5.80
2016,11,25,09,52,5.80
2016,11,25,09,53,5.80
2016,11,25,09,54,5.80
2016,11,25,09,55,5.80
2016,11,25,09,56,5.80
2016,11,25,09,57,5.80
2016,11,25,09,58,5.80
2016,11,25,09,59,5.90
2016,11,25,10,00,5.90
2016,11,25,10,01,5.90
2016,11,25,10,02,5.90
2016,11,25,10,03,5.90
2016,11,25,10,04,5.90
2016,11,25,10,05,6.00
2016,11,25,10,06,6.00
2016,11,25,10,07,6.00
2016,11,25,10,08,6.00
2016,11,25,10,09,6.00
2016,11,25,10,10,6.10
2016,11,25,10,11,6.10
2016,11,25,10,12,6.10
2016,11,25,10,13,6.10
2016,11,25,10,14,6.10
2016,11,25,10,15,6.10
2016,11,25,10,16,6.10
2016,11,25,10,17,6.10
2016,11,25,10,18,6.10
2016,11,25,10,19,6.10
2016,11,25,10,20,6.10
2016,11,25,10,21,6.20
2016,11,25,10,22,6.20
2016,11,25,10,23,6.20
2016,11,25,10,24,6.20
2016,11,25,10,25,6.20
2016,11,25,10,26,6.20
2016,11,25,10,27,6.30
2016,11,25,10,28,6.30
2016,11,25,10,29,6.30
2016,11,25,10,30,6.30
2016,11,25,10,31,6.30
2016,11,25,10,32,6.30
2016,11,25,10,33,6.40
2016,11,25,10,34,6.40
2016,11,25,10,35,6.40
2016,11,25,10,36,6.40
2016,11,25,10,37,6.40
2016,11,25,10,38,6.40
2016,11,25,10,39,6.40
2016,11,25,10,40,6.40
2016,11,25,10,41,6.40
2016,11,25,10,42,6.40
2016,11,25,10,43,6.40
2016,11,25,10,44,6.40
2016,11,25,10,45,6.40
2016,11,25,10,46,6.40
2016,11,25,10,47,6.40
2016,11,25,10,48,6.40
2016,11,25,10,49,6.40
2016,11,25,10,50,6.40
2016,11,25,10,51,6.40
2016,11,25,10,52,6.40
2016,11,25,10,53,6.40
2016,11,25,10,54,6.40
2016,11,25,10,55,6.50
2016,11,25,10,56,6.50
2016,11,25,10,57,6.50
2016,11,25,10,58,6.60
2016,11,25,10,59,6.60
2016,11,25,11,00,6.60
2016,11,25,11,01,6.60
2016,11,25,11,02,6.60
2016,11,25,11,03,6.60
2016,11,25,11,04,6.70
2016,11,25,11,05,6.70
2016,11,25,11,06,6.70
2016,11,25,11,07,6.70
2016,11,25,11,08,6.70
2016,11,25,11,09,6.70
2016,11,25,11,10,6.70
2016,11,25,11,11,6.70
2016,11,25,11,12,6.70
2016,11,25,11,13,6.70
2016,11,25,11,14,6.80
2016,11,25,11,15,6.80
2016,11,25,11,16,6.80
2016,11,25,11,17,6.80
2016,11,25,11,18,6.80
2016,11,25,11,19,6.80
2016,11,25,11,20,6.80
2016,11,25,11,21,6.80
2016,11,25,11,22,6.80
2016,11,25,11,23,6.80
2016,11,25,11,24,6.80
2016,11,25,11,25,6.90
2016,11,25,11,26,6.90
2016,11,25,11,27,6.90
2016,11,25,11,28,6.90
2016,11,25,11,29,7.00
2016,11,25,11,30,7.00
2016,11,25,11,31,7.00
2016,11,25,11,32,7.10
2016,11,25,11,33,7.10
2016,11,25,11,34,7.10
2016,11,25,11,35,7.10
2016,11,25,11,36,7.10
2016,11,25,11,37,7.10
2016,11,25,11,38,7.10
2016,11,25,11,39,7.20
2016,11,25,11,40,7.20
2016,11,25,11,41,7.20
2016,11,25,11,42,7.20
2016,11,25,11,43,7.20
2016,11,25,11,44,7.20
2016,11,25,11,45,7.20
2016,11,25,11,46,7.20
2016,11,25,11,47,7.20
2016,11,25,11,48,7.20
2016,11,25,11,49,7.20
2016,11,25,11,50,7.20
2016,11,25,11,51,7.20
2016,11,25,11,52,7.30
2016,11,25,11,53,7.20
2016,11,25,11,54,7.20
2016,11,25,11,55,7.20
2016,11,25,11,56,7.20
2016,11,25,11,57,7.30
2016,11,25,11,58,7.30
2016,11,25,11,59,7.30
2016,11,25,12,00,7.30
2016,11,25,12,01,7.30
2016,11,25,12,02,7.30
2016,11,25,12,03,7.30
2016,11,25,12,04,7.30
2016,11,25,12,05,7.30
2016,11,25,12,06,7.30
2016,11,25,12,07,7.30
2016,11,25,12,08,7.30
2016,11,25,12,09,7.30
2016,11,25,12,10,7.30
2016,11,25,12,11,7.40
2016,11,25,12,12,7.40
2016,11,25,12,13,7.40
2016,11,25,12,14,7.40
2016,11,25,12,15,7.40
2016,11,25,12,16,7.40
2016,11,25,12,17,7.40
2016,11,25,12,18,7.40
2016,11,25,12,19,7.40
2016,11,25,12,20,7.40
2016,11,25,12,21,7.40
2016,11,25,12,22,7.40
2016,11,25,12,23,7.40
2016,11,25,12,24,7.40
2016,11,25,12,25,7.40
2016,11,25,12,26,7.40
2016,11,25,12,27,7.40
2016,11,25,12,28,7.50
2016,11,25,12,29,7.50
2016,11,25,12,30,7.50
2016,11,25,12,31,7.50
2016,11,25,12,32,7.50
2016,11,25,12,33,7.50
2016,11,25,12,34,7.60
2016,11,25,12,35,7.60
2016,11,25,12,36,7.60
2016,11,25,12,37,7.60
2016,11,25,12,38,7.60
2016,11,25,12,39,7.60
2016,11,25,12,40,7.60
2016,11,25,12,41,7.60
2016,11,25,12,42,7.60
2016,11,25,12,43,7.60
2016,11,25,12,44,7.60
2016,11,25,12,45,7.60
2016,11,25,12,46,7.60
2016,11,25,12,47,7.60
2016,11,25,12,48,7.60
2016,11,25,12,49,7.60
2016,11,25,12,50,7.60
2016,11,25,12,51,7.60
2016,11,25,12,52,7.60
2016,11,25,12,53,7.60
2016,11,25,12,54,7.60
2016,11,25,12,55,7.60
2016,11,25,12,56,7.60
2016,11,25,12,57,7.50
2016,11,25,12,58,7.50
2016,11,25,12,59,7.50
2016,11,25,13,00,7.50
2016,11,25,13,01,7.50
2016,11,25,13,02,7.50
2016,11,25,13,03,7.50
2016,11,25,13,04,7.50
2016,11,25,13,05,7.50
2016,11,25,13,06,7.50
2016,11,25,13,07,7.60
2016,11,25,13,08,7.60
2016,11,25,13,09,7.60
2016,11,25,13,10,7.60
2016,11,25,13,11,7.60
2016,11,25,13,12,7.60
2016,11,25,13,13,7.70
2016,11,25,13,14,7.70
2016,11,25,13,15,7.70
2016,11,25,13,16,7.70
2016,11,25,13,17,7.70
2016,11,25,13,18,7.70
2016,11,25,13,19,7.70
2016,11,25,13,20,7.70
2016,11,25,13,21,7.70
2016,11,25,13,22,7.70
2016,11,25,13,23,7.70
2016,11,25,13,24,7.70
2016,11,25,13,25,7.70
2016,11,25,13,26,7.70
2016,11,25,13,27,7.70
2016,11,25,13,28,7.70
2016,11,25,13,29,7.70
2016,11,25,13,30,7.80
2016,11,25,13,31,7.80
2016,11,25,13,32,7.80
2016,11,25,13,33,7.80
2016,11,25,13,34,7.80
2016,11,25,13,35,7.80
2016,11,25,13,36,7.80
2016,11,25,13,37,7.80
2016,11,25,13,38,7.80
2016,11,25,13,39,7.80
2016,11,25,13,40,7.80
2016,11,25,13,41,7.80
2016,11,25,13,42,7.80
2016,11,25,13,43,7.80
2016,11,25,13,44,7.80
2016,11,25,13,45,7.80
2016,11,25,13,46,7.80
2016,11,25,13,47,7.80
2016,11,25,13,48,7.80
2016,11,25,13,49,7.80
2016,11,25,13,50,7.80
2016,11,25,13,51,7.80
2016,11,25,13,52,7.80
2016,11,25,13,53,7.80
2016,11,25,13,54,7.80
2016,11,25,13,55,7.80
2016,11,25,13,56,7.80
2016,11,25,13,57,7.80
2016,11,25,13,58,7.80
2016,11,25,13,59,7.80
2016,11,25,14,00,7.80
2016,11,25,14,01,7.80
2016,11,25,14,02,7.80
2016,11,25,14,03,7.80
2016,11,25,14,04,7.80
2016,11,25,14,05,7.80
2016,11,25,14,06,7.80
2016,11,25,14,07,7.80
2016,11,25,14,08,7.80
2016,11,25,14,09,7.80
2016,11,25,14,10,7.80
2016,11,25,14,11,7.80
2016,11,25,14,12,7.80
2016,11,25,14,13,7.80
2016,11,25,14,14,7.80
2016,11,25,14,15,7.90
2016,11,25,14,16,7.90
2016,11,25,14,17,7.90
2016,11,25,14,18,7.90
2016,11,25,14,19,7.90
2016,11,25,14,20,7.90
2016,11,25,14,21,7.90
2016,11,25,14,22,8.00
2016,11,25,14,23,8.00
2016,11,25,14,24,8.00
2016,11,25,14,25,8.10
2016,11,25,14,26,8.10
2016,11,25,14,27,8.10
2016,11,25,14,28,8.10
2016,11,25,14,29,8.10
2016,11,25,14,30,8.10
2016,11,25,14,31,8.10
2016,11,25,14,32,8.10
2016,11,25,14,33,8.10
2016,11,25,14,34,8.10
2016,11,25,14,35,8.10
2016,11,25,14,36,8.10
2016,11,25,14,37,8.00
2016,11,25,14,38,8.00
2016,11,25,14,39,8.00
2016,11,25,14,40,8.10
2016,11,25,14,41,8.10
2016,11,25,14,42,8.10
2016,11,25,14,43,8.00
2016,11,25,14,44,8.00
2016,11,25,14,45,8.00
2016,11,25,14,46,8.00
2016,11,25,14,47,8.00
2016,11,25,14,48,8.00
2016,11,25,14,49,8.00
2016,11,25,14,50,8.00
2016,11,25,14,51,8.00
2016,11,25,14,52,8.00
2016,11,25,14,53,8.10
2016,11,25,14,54,8.10
2016,11,25,14,55,8.10
2016,11,25,14,56,8.10
2016,11,25,14,57,8.10
2016,11,25,14,58,8.00
2016,11,25,14,59,8.00
2016,11,25,15,00,8.00
2016,11,25,15,01,8.00
2016,11,25,15,02,8.00
2016,11,25,15,03,8.00
2016,11,25,15,04,8.00
2016,11,25,15,05,8.00
2016,11,25,15,06,8.00
2016,11,25,15,07,8.00
2016,11,25,15,08,8.00
2016,11,25,15,09,8.00
2016,11,25,15,10,8.00
2016,11,25,15,11,8.00
2016,11,25,15,12,8.00
2016,11,25,15,13,8.00
2016,11,25,15,14,8.00
2016,11,25,15,15,8.00
2016,11,25,15,16,8.00
2016,11,25,15,17,8.00
2016,11,25,15,18,8.00
2016,11,25,15,19,8.00
2016,11,25,15,20,8.00
2016,11,25,15,21,8.10
2016,11,25,15,22,8.10
2016,11,25,15,23,8.10
2016,11,25,15,24,8.10
2016,11,25,15,25,8.10
2016,11,25,15,26,8.10
2016,11,25,15,27,8.10
2016,11,25,15,28,8.10
2016,11,25,15,29,8.10
2016,11,25,15,30,8.10
2016,11,25,15,31,8.10
2016,11,25,15,32,8.10
2016,11,25,15,33,8.10
2016,11,25,15,34,8.10
2016,11,25,15,35,8.10
2016,11,25,15,36,8.10
2016,11,25,15,37,8.10
2016,11,25,15,38,8.10
2016,11,25,15,39,8.10
2016,11,25,15,40,8.10
2016,11,25,15,41,8.10
2016,11,25,15,42,8.10
2016,11,25,15,43,8.20
2016,11,25,15,44,8.20
2016,11,25,15,45,8.10
2016,11,25,15,46,8.20
2016,11,25,15,47,8.20
2016,11,25,15,48,8.20
2016,11,25,15,49,8.10
2016,11,25,15,50,8.10
2016,11,25,15,51,8.10
2016,11,25,15,52,8.10
2016,11,25,15,53,8.10
2016,11,25,15,54,8.10
2016,11,25,15,55,8.10
2016,11,25,15,56,8.10
2016,11,25,15,57,8.10
2016,11,25,15,58,8.10
2016,11,25,15,59,8.10
2016,11,25,16,00,8.10
2016,11,25,16,01,8.10
2016,11,25,16,02,8.00
2016,11,25,16,03,8.00
2016,11,25,16,04,8.00
2016,11,25,16,05,8.00
2016,11,25,16,06,8.00
2016,11,25,16,07,8.00
2016,11,25,16,08,8.00
2016,11,25,16,09,8.00
2016,11,25,16,10,8.00
2016,11,25,16,11,8.00
2016,11,25,16,12,8.00
2016,11,25,16,13,8.00
2016,11,25,16,14,8.00
2016,11,25,16,15,7.90
2016,11,25,16,16,7.90
2016,11,25,16,17,7.90
2016,11,25,16,18,7.90
2016,11,25,16,19,7.90
2016,11,25,16,20,7.90
2016,11,25,16,21,7.90
2016,11,25,16,22,7.90
2016,11,25,16,23,7.90
2016,11,25,16,24,7.90
2016,11,25,16,25,7.90
2016,11,25,16,26,7.90
2016,11,25,16,27,7.90
2016,11,25,16,28,7.90
2016,11,25,16,29,7.90
2016,11,25,16,30,7.90
2016,11,25,16,31,7.90
2016,11,25,16,32,7.90
2016,11,25,16,33,7.90
2016,11,25,16,34,7.90
2016,11,25,16,35,7.90
2016,11,25,16,36,7.80
2016,11,25,16,37,7.80
2016,11,25,16,38,7.80
2016,11,25,16,39,7.80
2016,11,25,16,40,7.80
2016,11,25,16,41,7.80
2016,11,25,16,42,7.80
2016,11,25,16,43,7.80
2016,11,25,16,44,7.80
2016,11,25,16,45,7.80
2016,11,25,16,46,7.80
2016,11,25,16,47,7.80
2016,11,25,16,48,7.80
2016,11,25,16,49,7.80
2016,11,25,16,50,7.80
2016,11,25,16,51,7.80
2016,11,25,16,52,7.80
2016,11,25,16,53,7.80
2016,11,25,16,54,7.80
2016,11,25,16,55,7.80
2016,11,25,16,56,7.80
2016,11,25,16,57,7.80
2016,11,25,16,58,7.80
2016,11,25,16,59,7.80
2016,11,25,17,00,7.70
2016,11,25,17,01,7.70
2016,11,25,17,02,7.70
2016,11,25,17,03,7.70
2016,11,25,17,04,7.70
2016,11,25,17,05,7.70
2016,11,25,17,06,7.70
2016,11,25,17,07,7.70
2016,11,25,17,08,7.70
2016,11,25,17,09,7.70
2016,11,25,17,10,7.70
2016,11,25,17,11,7.70
2016,11,25,17,12,7.70
2016,11,25,17,13,7.70
2016,11,25,17,14,7.70
2016,11,25,17,15,7.70
2016,11,25,17,16,7.70
2016,11,25,17,17,7.70
2016,11,25,17,18,7.70
2016,11,25,17,19,7.70
2016,11,25,17,20,7.70
2016,11,25,17,21,7.70
2016,11,25,17,22,7.70
2016,11,25,17,23,7.70
2016,11,25,17,24,7.70
2016,11,25,17,25,7.70
2016,11,25,17,26,7.70
2016,11,25,17,27,7.70
2016,11,25,17,28,7.70
2016,11,25,17,29,7.70
2016,11,25,17,30,7.70
2016,11,25,17,31,7.70
2016,11,25,17,32,7.70
2016,11,25,17,33,7.70
2016,11,25,17,34,7.70
2016,11,25,17,35,7.70
2016,11,25,17,36,7.70
2016,11,25,17,37,7.70
2016,11,25,17,38,7.70
2016,11,25,17,39,7.70
2016,11,25,17,40,7.70
2016,11,25,17,41,7.70
2016,11,25,17,42,7.70
2016,11,25,17,43,7.70
2016,11,25,17,44,7.70
2016,11,25,17,45,7.70
2016,11,25,17,46,7.70
2016,11,25,17,47,7.70
2016,11,25,17,48,7.70
2016,11,25,17,49,7.70
2016,11,25,17,50,7.70
2016,11,25,17,51,7.70
2016,11,25,17,52,7.70
2016,11,25,17,53,7.60
2016,11,25,17,54,7.60
2016,11,25,17,55,7.60
2016,11,25,17,56,7.60
2016,11,25,17,57,7.60
2016,11,25,17,58,7.60
2016,11,25,17,59,7.60
2016,11,25,18,00,7.60
2016,11,25,18,01,7.60
2016,11,25,18,02,7.60
2016,11,25,18,03,7.50
2016,11,25,18,04,7.50
2016,11,25,18,05,7.50
2016,11,25,18,06,7.50